小惑星ファエトン

(3200) Phaethon (2008)

English version
Home page
Updated on October 12, 2008

---------------------------------------------------------------------

・ プロフィール

・ 写真集

・ 軌道要素

The following orbital elements are taken from MPO104057

Epoch 2007 Oct. 27.0 TT = JDT 2454400.5                 MPC
M 305.83293              (2000.0)            P               Q
n   0.68755403     Peri.  322.01498     -0.63135355     +0.67805227
a   1.2713491      Node   265.39396     -0.58637526     -0.73499162
e   0.8899922      Incl.   22.18308     -0.50750049     +0.00569495
P   1.43           H   14.6           G   0.15           U   0
From 1515 observations at 20 oppositions, 1983-2006, mean residual 0".54.

・ 星図

・ 光度変化

        H = 14.3  G = 0.15

---------------------------------------------------------------------

軌道要素はMPCのEphemerides and Orbital Elementsに掲載されたものです。
星図はステラナビゲータ Ver.8 (アストロアーツ) で作成したものです。
光度グラフはComet for Windowsで作成したものです。

---------------------------------------------------------------------

Copyright(C) Seiichi Yoshida (comet@aerith.net). All rights reserved.